User: anonymous   Login
Location: Bishop's University Astronomical Observatory
(45.3661°N, 71.8475°W)
Time: 00:58:16
(UTC-05:00)
Language:

Meteor 2-5 Rocket - Orbit

View from above orbital plane
View from above orbital plane
View from above satellite
View from above satellite

Ground track
Ground track

The orbit data is extracted from the following two-line orbital elements,

1 11608U 79095B   15053.87487452  .00000261  00000-0  14982-3 0  9991
2 11608 081.2151 311.2607 0054762 017.7356 342.5707 14.06047097811285
Epoch (UTC): 22 February 2015 20:59:49
Eccentricity: 0.0054762
inclination: 81.2151°
perigee height: 833 km
apogee height: 912 km
right ascension of ascending node: 311.2607°
argument of perigee: 17.7356°
revolutions per day: 14.06047097
mean anomaly at epoch: 342.5707°
orbit number at epoch: 81128

The dashed part of the orbit path shows where the satellite is in the earth's shadow,  

DLR